Timeline UpdatesTrip UpdatesNews PostsPvt PostsTravel TipsAdmin PostsConv PostsFollowed PostsChat RequestsBlog PostsPNR Posts

Disclaimer
Search
 
 
Fri Apr 25, 2014 12:21:23 ISTHomeTrainsΣChainsAtlasPNRForumGalleryNewsFAQTripsMembersLoginFeedback
No Recent News for this Train
Other Trains in the News **new
Latest...
.
Thu Apr 24, 2014 (09:39PM)
⇐ Return Journey: Train# 18238

18237/Chhattisgarh Express

Dec 31 2013 (1:38PM)
Change Departure Station:
Change Arrival Station:
Post a Train Travel TipPost a Train Travel Tip **new
Post a Comment/Question/Picture/VideoPost a Comment/Question/Picture/Video
Inaugural Run
Sat Jan 01, 1977
Pantry/Catering
✓ Pantry Car Avbl
✓ Catering Avbl
Food is of Average Quality
Loco/Rake Reversals
NGP/Nagpur Junction (9);
RSA - Rake Sharing
58209
Rake/Coach Composition
LOCO-SP1-SLR-GS-S1-S2-S3-S4-S5-S6-S7-S8-S9-S10-PC-S11-S12-B3-B2-B1-A1-HA1-GS-SLR
Loco
BSP - NGP --- ET WAP4 NGP - NZM --- AJNI...
Read more...
WAP7 NZM - ASR ---- TKD WDP4 Author: Mahesh Gupta Entry# 295353
News    PNR    Forum    Time-Table    Availability    Fare Chart    Map    Arr/Dep History    Trips    Gallery    ΣChains    X/O    Timeline    
Travel Time: 41h 55m    81 halts    Distance: 2011 km    Avg Speed: 47 km/hr
Type: Mail/Express
Zone: SECR/South East Central
Departs @ 14:15 (Avg 2m late)
Platform# 3
SMTWTFS
Bilaspur Junction/BSP 
Arrives @ 08:10 +2 nights (Avg 34m late)
Platform# 3
SMTWTFS
Amritsar Junction/ASR 

81 halts. 279 intermediate Stations between Bilaspur Junction and Amritsar Junction

Show ALL intermediate Stations  Show Old Time-Table

#CodeStation NameX/OArrivesAvgDepartsAvgHaltPFDay#KmSpeedElevZoneAddress
1BSP»Bilaspur Junction (8)»  -14:15+2310.052271mSECRBilaspur, Chhattisgarh
2BYLBelha  14:33+614:35+62m--115.580269mSECRCollege Road, Chhattisgarh
3BYTBhatapara (4)X  14:58+1015:00+102m--146.277270mSECRBanjari Road, Chhattisgarh
4HNHathbandhX  15:12+1115:14+112m--161.571283mSECRRaipur, Chhattisgarh
5TLDTilda (3)X  15:23+1115:25+112m--172.251291mSECRBanjari Rd, Chhattisgarh
6RRaipur Junction (6)XO  16:10+1116:20+1010m--1110.484297mSECRRaipur, Chhattisgarh
7BPHBBhilai Power House (3)X  16:40+616:42+62m--1138.419312mSECRBhilai, Chhattisgarh
8DURGDurg Junction (6)X  17:10+217:15+35m11147.487299mSECRPh: 91-788-2322059, Chhattisgarh
9RJNRaj Nandgaon (3)X  17:36+1617:38+162m--1177.886313mSECRRajnandgaon, Chhattisgarh
10DGGDongargarh (2)  18:00+2218:02+222m--1209.467353mSECRDongargarh, Chhattisgarh
11SKSSalekasa (2)  18:34+2818:36+282m--1245.180312mSECRRajnandgaon, Chhattisgarh
12AGNAmgaon (2)  18:47+2918:49+292m--1259.847317mSECRGondia, Maharashtra
13GGondia Junction (7)  19:18+2119:23+225m--1282.692316mSECRGondia 441601, Maharashtra
14TROTirora (3)  19:42+3019:44+292m--1311.972282mSECRDist Gondiya, Maharashtra
15TMRTumsar Road (3)X  20:01+2720:03+272m--1332.372267mSECRBhandara, Maharashtra
16BRDBhandara Road (2)  20:18+2720:20+272m--1350.287266mSECRState Highway 252, Maharashtra
17KPKamptee (3)  20:53+2120:55+212m--1398.219290mSECRMH 441001, Maharashtra
18NGPNagpur Junction (9)X21:40+1322:05+1425m31412.583314mCRNagpur 440001, Maharashtra
19KATLKatol (2)X  22:49+2722:50+281m--1473.379415mCRKatol, Maharashtra
20NRKRNarkher Junction (3)  23:09+3123:10+331m--1498.558411mCRNarkher, Maharashtra
21PARPandhurna (2)  23:29+3223:30+341m--1516.848481mCRDistt: Chhindwara, Madhya Pradesh
22MTYMultai (2)X  00:21+2400:22+251m--2557.660762mCRMultai, Madhya Pradesh
23AMLAAmla Junction (5)XO  00:45+3301:20+3035m--2580.553733mCRAmla Distt. Betul, Madhya Pradesh
24BZUBetul (3)  01:46+2601:47+281m--2603.450644mCRBetul, Madhya Pradesh
25GDYAGhoradongri (3)XO  02:30+2202:31+241m--2639.339410mCRBetul, Madhya Pradesh
26ETItarsi Junction (7)  04:20+1104:25+175m--2709.660329mWCRItarsi 461111, Madhya Pradesh
27HBDHoshangabad (4)X  04:43+2104:45+222m--2727.750308mWCRHoshangabad, Madhya Pradesh
28ODGObaidulla Ganj  05:30+3505:32+372m22765.554450mWCRObaidullaganj Raisen Dist., Madhya Pradesh
29HBJBhopal HabibGanj (5)XO  06:05+3306:07+382m42795.116496mWCRHabibGanj, Madhya Pradesh
30BPLBhopal Junction (6)X  06:30+3206:35+335m22801.471497mWCRBhopal, Madhya Pradesh
31BHSVidisha (3)X  07:20+3107:22+312m12854.987432mWCRVidisha, Madhya Pradesh
32BAQGanj Basoda (4)X  07:49+3507:51+352m12894.246416mWCRVidisha, Madhya Pradesh
33MABAMandi Bamora (3)XO  08:28+2108:30+232m12922.723413mWCRState Highway 14, Madhya Pradesh
34BINABina Junction (5)X  09:15+509:20+85m22939.956414mWCRJn Pt - KATNI/GUNA/ BPL/JHS, Madhya Pradesh
35DUADhaura (3)X  09:57+909:58+111m--2974.577407mNCRDhaura Tanda, Madhya Pradesh
36LARLalitpur (3)  10:20+1810:22+182m321002.886373mNCRLalitpur, Uttar Pradesh
37BZYBasai (3)X  11:06+2311:08+232m221055.648287mNCR07522289600(Gate ManMob. - 9452701575), Madhya Pradesh
38BABBabina (3)  11:23+2111:25+222m221067.734285mNCRBabina, Uttar Pradesh
39JHSJhansi Junction (7)X  12:10+1212:18+178m421093.268259mNCRJhansi, Uttar Pradesh
40DAADatia (2)X  12:40+2212:42+232m121118.258264mNCRDatia, Madhya Pradesh
41SORSonagirX  12:54+2212:56+232m--21129.771211mNCRDatia, Madhya Pradesh
42DBADabra (3)X  13:12+2513:14+262m121148.669204mNCRDabra(District-Gwalior), Madhya Pradesh
43GWLGwalior Junction (4)X  13:51+3213:56+345m221190.977214mNCRGwalior, Madhya Pradesh
44BAOBanmorO  14:11+4314:13+442m--21210.168189mNCRGwalior, Madhya Pradesh
45MRAMorena (3)  14:30+4314:35+415m221229.477176mNCRMorena, Madhya Pradesh
46DHODholpur Junction (3)X  14:56+4314:58+432m121256.351177mNCRDholpur, Rajasthan
47AGCAgra Cantt. (6)XO  16:00+3716:08+418m221308.930174mNCRAgra, Uttar Pradesh
48RKMRaja Ki Mandi (4)  16:16+4616:17+471m121312.962170mNCRAgra, Uttar Pradesh
49MTJMathura Junction (10)X  17:05+4617:10+475m221362.681179mNCRMathura, Uttar Pradesh
50CHJChata (4)X  17:33+5117:34+521m221393.751185mNCRChhata, Uttar Pradesh
51KSVKosi Kalan (3)X  17:46+5217:47+541m121404.049189mNCRKosi Kalan, Uttar Pradesh
52PWLPalwal (8)  18:39+3618:40+401m--21446.567200mNRPalwal, Haryana
53BVHBallabgarh (5)  18:59+4219:00+431m--21467.740203mNRFaridabad, Haryana
54FDBFaridabad (4)XO  19:12+4419:13+451m221475.739206mNRFaridabad, Haryana
55NZMDelhi Hazrat Nizamuddin (7)O  19:45+5420:15+5230m121496.525209mNRNizamuddin East/Sarai KaleKhan Bus Terminal, Delhi NCT
56SBBSahibabad Junction (5)XO  20:53+4720:54+481m--21512.629209mNRGhaziabad, Uttar Pradesh
57GZBGhaziabad Junction (6)  21:08+4921:10+492m121519.266217mNRGhaziabad, Uttar Pradesh
58MUDMuradnagar (2)X  21:26+5921:28+592m--21536.961220mNRGhaziabad, Uttar Pradesh
59MDNRModinagar (2)X  21:38+1:0121:40+1:012m--21547.058221mNRGhaziabad, Uttar Pradesh
60MTCMeerut City Junction (6)  22:00+1:0122:05+595m321566.552229mNRMeerut, Uttar Pradesh
61MUTMeerut Cantt. (2)  22:10+1:0122:12+1:012m--21570.879230mNRMeerut, Uttar Pradesh
62KATKhatauli (2)  22:34+1:0322:35+1:041m221599.958239mNRKhatauli, Uttar Pradesh
63MOZMuzaffarnagar (3)  22:58+1:0323:00+1:022m221622.172247mNRMuzaffarNagar, Uttar Pradesh
64DBDDeoband (2)  23:20+5723:22+562m221646.135258mNRSaharanpur, Uttar Pradesh
65SRESaharanpur Junction (6)X  00:20+5300:30+5410m431680.362276mNRSaharanpur, Uttar Pradesh
66JUDYamunanagar-Jagadhri (3)X  00:59+1:0301:00+1:051m331710.438275mNRYamunanagar, Haryana
67JUDWJagadhri Workshop (2)X  01:08+1:0501:09+1:061m231715.471280mNRRailway Workshop Road, Haryana
68RAABarara (2)  01:27+1:0701:28+1:081m231736.740279mNRBarara, Haryana
69UMBAmbala Cantt. Junction (7)X  02:05+1:0102:15+1:0210m231761.432278mNRAmbala 133001, Haryana
70UBCAmbala City (3)X  02:29+1:0202:30+1:031m331769.072273mNRNH-1, Haryana
71RPJRajpura Junction (3)X  02:47+1:0402:48+1:061m131789.539272mNRNH-1, Punjab
72SIRSirhind Junction (3)XO  03:26+4903:28+512m131814.359271mNRSirhind, Punjab
73GVGMandi Gobindgarh (2)  03:38+5003:39+511m231824.141268mNRMandi Gobindgarh, Punjab
74KNNKhanna (3)XO  03:51+5003:52+511m131832.268269mNRNH 1, Punjab
75LDHLudhiana Junction (7)X  04:30+1:0604:40+1:2110m231875.134246mNRLudhiana 141001, Punjab
76PHRPhillaur Junction (3)O  05:03+1:1605:05+1:162m231888.175246mNRPhillaur, Punjab
77PGWPhagwara Junction (3)O  05:23+1:1705:25+1:172m231910.754245mNRPhagwara, Punjab
78JRCJalandhar Cantt. Junction (3)  05:43+1:1505:45+1:152m131927.029239mNRNear Rama Mandi, Punjab
79JUCJalandhar City Junction (5)X  05:55+1:1406:00+1:175m131931.849239mNRJalandhar 144001, Punjab
80KREKartarpur (2)X  06:18+1:1506:20+1:152m231946.549236mNRKartarpur, Punjab
81BEASBeas Junction (2)  06:46+1:1006:48+1:102m131967.980238mNRBeas, Punjab
82JNLJandiala (2)X  07:06+1:0807:08+1:082m131991.819238mNRJandiala, Punjab
83ASR•Amritsar Junction (5)•  08:10+34-332011.0-233mNRAmritsar 143002, Punjab
Scroll to Top
Scroll to Bottom